PWSat 2 (43814 NORAD) Tracking and Keplerian Element Data

This shows tracking and keplerian element data for the satellite.

Feedback or suggestion? Click here.




ElementValue
Catalog43814
NamePWSat 2
Epoch Orbit3216
Epoch Day191.77600729
Epoch Year2019
RAAN264.6648
Inclination97.7834
Eccentricity0.0006464
Argument of Perigee214.7652
Mean Anonmoly145.3154
Mean Motion15.0002015
Decay Rate9.719E-05
L11 43814U 18099BJ 19191.77600729 .00009719 00000-0 78505-3 0 9990
L22 43814 97.7834 264.6648 0006464 214.7652 145.3154 15.00020150 32162

Live tracking and technical data element details for PWSat 2 (NORAD 43814). PWSat 2 can be tracked NOW for your location showing map with azimuth and elevation plus other details from your city location.

Track the satellite on the map from your city or location and see movement details for azimuth, elevation, latitude, longitude, range, height, and movement on the map or in text.







IsCatalogInMostPopularTable: catalog: 43814, numindb: 196
Update: records affected: 1



GetName: 43814 PWSat 2

Hit Count: updated at: Tue, 16 Jul 2019 21:19:50 GMT